This is the latest recevied weather packets stored in our database for station/object AD8AK. If no packets are shown the sender has not sent any weather packets the latest 10 day(s).
| Time | Temp. | Humidity | Pressure | Rain* | Wind** | Luminosity | Snow |
|---|---|---|---|---|---|---|---|
| 1777743877 | 8.33° C | 46% | 1018.3 hPa | 0 mm | - | - | - |
| 1777743574 | 8.33° C | 46% | 1018 hPa | 0 mm | - | - | - |
| 1777743270 | 8.33° C | 51% | 1018.2 hPa | 0 mm | - | - | - |
| 1777742970 | 7.78° C | 50% | 1018.1 hPa | 0 mm | - | - | - |
| 1777742666 | 7.78° C | 47% | 1018.2 hPa | 0 mm | - | - | - |
| 1777742362 | 7.22° C | 55% | 1018.3 hPa | 0 mm | - | - | - |
| 1777742058 | 7.22° C | 53% | 1018.3 hPa | 0 mm | - | - | - |
| 1777741756 | 7.22° C | 54% | 1018.3 hPa | 0 mm | - | - | - |
| 1777741452 | 7.22° C | 54% | 1018.3 hPa | 0 mm | - | - | - |
| 1777741148 | 7.22° C | 53% | 1018.3 hPa | 0 mm | - | - | - |
| 1777740845 | 7.22° C | 51% | 1018.3 hPa | 0 mm | - | - | - |
| 1777740542 | 7.78° C | 54% | 1018.5 hPa | 0 mm | - | - | - |
| 1777740239 | 7.78° C | 58% | 1018.5 hPa | 0 mm | - | - | - |
| 1777739935 | 7.78° C | 54% | 1018.6 hPa | 0 mm | - | - | - |
| 1777739631 | 7.22° C | 53% | 1018.5 hPa | 0 mm | - | - | - |
| 1777739329 | 7.22° C | 54% | 1018.4 hPa | 0 mm | - | - | - |
| 1777739025 | 7.22° C | 55% | 1018.6 hPa | 0 mm | - | - | - |
| 1777738723 | 7.22° C | 55% | 1018.7 hPa | 0 mm | - | - | - |
| 1777738419 | 7.22° C | 54% | 1018.7 hPa | 0 mm | - | - | - |
| 1777738117 | 7.22° C | 51% | 1018.6 hPa | 0 mm | - | - | - |
| 1777737815 | 7.22° C | 56% | 1018.6 hPa | 0 mm | - | - | - |
| 1777737514 | 7.22° C | 56% | 1018.5 hPa | 0 mm | - | - | - |
| 1777737211 | 6.67° C | 57% | 1018.5 hPa | 0 mm | - | - | - |
| 1777736907 | 6.67° C | 57% | 1018.5 hPa | 0 mm | - | - | - |
| 1777736293 | 6.67° C | 57% | 1018.5 hPa | 0 mm | - | - | - |
* Rain latest hour (hover to see other rain measurements)
** Current wind speed in m/s (hover to see current wind gust speed)